Location: Ferchesar
(52.6477°N, 12.4298°E)
Time: 21:36:17
(UTC+02:00)

A-11 Canister half - Pass Details

Date: 08 March 2021
Orbit: 1525 x 1683 km, 47.3° (Epoch: 11 April)

Event Time Altitude Azimuth Distance (km) Brightness Sun altitude
Exits shadow 04:13:31 30° 218° (SW) 2,571 9.7 -22.7°
Maximum altitude 04:18:20 53° 159° (SSE) 1,878 9.4 -22.1°
Drops below altitude 10° 04:27:20 10° 86° (E) 3,725 12.1 -20.8°
Sets 04:30:26 0° 82° (E) 4,696 13.0 -20.3°
